User: anonymous   Login
Location: Sawmill Trailhead
(33.5800°N, 116.4497°W)
Time: 20:09:53
(UTC-07:00)
Language:

Uosat F - Orbit

View from above orbital plane
View from above orbital plane
View from above satellite
View from above satellite

Ground track
Ground track

The orbit data is extracted from the following two-line orbital elements,

1 21575U 91050B   16274.48958935  .00000061  00000-0  33648-4 0  9991
2 21575  98.7641 278.6133 0007283   2.1760 357.9458 14.40761054323880
Epoch (UTC): 30 September 2016 11:45:00
Eccentricity: 0.0007283
inclination: 98.7641°
perigee height: 751 km
apogee height: 761 km
right ascension of ascending node: 278.6133°
argument of perigee: 2.1760°
revolutions per day: 14.40761054
mean anomaly at epoch: 357.9458°
orbit number at epoch: 32388

The dashed part of the orbit path shows where the satellite is in the earth's shadow,  

DLR